Bridgeport, TX

9:06 AM CST on December 16, 2017 (GMT -0600)
Bridgeport

Weather History for KXBP - March, 2013

Change the Weather History Date:

Monday, March 4, 2013

  Actual Average (KAFW) Record (KAFW)
Temperature  
Mean Temperature 68 °F -  
Max Temperature 87 °F 60 °F 87 °F (2013)
Min Temperature 46 °F 38 °F 17 °F (2002)
Cooling Degree Days 2    
Growing Degree Days 18 (Base 50)    
Moisture  
Dew Point 30 °F    
Average Humidity 26    
Maximum Humidity 66    
Minimum Humidity 11    
Precipitation  
Precipitation 0.00 in - - ()
Sea Level Pressure  
Sea Level Pressure 29.68 in    
Wind  
Wind Speed 14 mph (WSW)    
Max Wind Speed 23 mph    
Max Gust Speed 30 mph    
Visibility 7 miles    
Events      
Averages and records for this station are not official NWS values.
T = Trace of Precipitation, MM = Missing Value Source: NWS Daily Summary

Daily Weather History Graph

Daily Weather History Graph

Search for Another Location

Airport or City:

Trip Planner

Search our weather history database for the weather conditions in past years. The results will help you decide how hot, cold, wet, or windy it might be!

Date:

Astronomy

Mar. 04, 2013 Rise Set
Actual Time 6:55 AM CST 6:30 PM CST
Civil Twilight 6:30 AM CST 6:55 PM CST
Nautical Twilight 6:01 AM CST 7:24 PM CST
Astronomical Twilight 5:33 AM CST 7:53 PM CST
Moon 12:53 AM CST (3/4) 11:26 AM CST (3/4)
Length of Visible Light 12h 25m
Length of Day
11h 35m
Waning Gibbous, 52% of the Moon is Illuminated
Mar 4
Waning Gibbous
Mar 4
Last Quarter
Mar 11
New
Mar 19
First Quarter
Mar 27
Full

Hourly Weather History & Observations

Time (CST) Temp. Windchill Dew Point Humidity Pressure Visibility Wind Dir Wind Speed Gust Speed Precip Events Conditions
12:15 AM 62.6 °F - 28.4 °F 27% 29.73 in 7.0 mi South 17.3 mph 23.0 mph N/A   Clear
12:35 AM 62.6 °F - 28.4 °F 27% 29.72 in 7.0 mi South 17.3 mph 21.9 mph N/A   Clear
12:55 AM 62.6 °F - 28.4 °F 27% 29.72 in 7.0 mi South 16.1 mph 20.7 mph N/A   Clear
1:15 AM 60.8 °F - 28.4 °F 29% 29.72 in 7.0 mi South 13.8 mph 20.7 mph N/A   Clear
1:55 AM 60.8 °F - 28.4 °F 29% 29.71 in 7.0 mi SSW 13.8 mph 20.7 mph N/A   Clear
2:15 AM 60.8 °F - 30.2 °F 31% 29.71 in 7.0 mi SSW 13.8 mph 21.9 mph N/A   Clear
2:35 AM 60.8 °F - 30.2 °F 31% 29.70 in 7.0 mi South 11.5 mph 21.9 mph N/A   Clear
2:55 AM 59.0 °F - 30.2 °F 34% 29.70 in 7.0 mi SSW 13.8 mph 21.9 mph N/A   Clear
3:35 AM 59.0 °F - 30.2 °F 34% 29.70 in 7.0 mi SSW 11.5 mph - N/A   Clear
3:55 AM 59.0 °F - 30.2 °F 34% 29.70 in 7.0 mi SSW 13.8 mph 19.6 mph N/A   Clear
4:15 AM 59.0 °F - 32.0 °F 36% 29.69 in 7.0 mi SSW 10.4 mph 19.6 mph N/A   Clear
4:35 AM 59.0 °F - 32.0 °F 36% 29.68 in 7.0 mi SSW 13.8 mph 21.9 mph N/A   Clear
4:55 AM 59.0 °F - 32.0 °F 36% 29.68 in 7.0 mi SSW 15.0 mph 21.9 mph N/A   Clear
5:15 AM 59.0 °F - 30.2 °F 34% 29.67 in 7.0 mi SSW 17.3 mph 23.0 mph N/A   Clear
5:35 AM 59.0 °F - 30.2 °F 34% 29.67 in 7.0 mi SSW 13.8 mph - N/A   Clear
6:15 AM 59.0 °F - 30.2 °F 34% 29.67 in 7.0 mi SSW 13.8 mph 24.2 mph N/A   Clear
6:35 AM 59.0 °F - 30.2 °F 34% 29.67 in 7.0 mi SSW 16.1 mph 24.2 mph N/A   Clear
6:55 AM 59.0 °F - 30.2 °F 34% 29.67 in 7.0 mi SSW 17.3 mph 23.0 mph N/A   Clear
7:15 AM 59.0 °F - 30.2 °F 34% 29.68 in 5.0 mi SSW 17.3 mph 23.0 mph N/A   Haze
7:35 AM 59.0 °F - 30.2 °F 34% 29.67 in 5.0 mi SSW 17.3 mph 24.2 mph N/A   Haze
7:55 AM 60.8 °F - 30.2 °F 31% 29.68 in 5.0 mi SW 16.1 mph 21.9 mph N/A   Haze
8:15 AM 60.8 °F - 30.2 °F 31% 29.68 in 5.0 mi SW 16.1 mph 21.9 mph N/A   Haze
8:35 AM 62.6 °F - 30.2 °F 30% 29.68 in 5.0 mi SW 15.0 mph 23.0 mph N/A   Haze
8:55 AM 62.6 °F - 30.2 °F 30% 29.69 in 5.0 mi SW 19.6 mph 24.2 mph N/A   Haze
9:15 AM 66.2 °F - 28.4 °F 24% 29.70 in 5.0 mi SW 17.3 mph 24.2 mph N/A   Haze
9:35 AM 68.0 °F - 30.2 °F 24% 29.69 in 7.0 mi SW 15.0 mph 19.6 mph N/A   Clear
9:55 AM 68.0 °F - 28.4 °F 23% 29.70 in 7.0 mi WSW 15.0 mph 20.7 mph N/A   Clear
10:15 AM 71.6 °F - 28.4 °F 20% 29.69 in 7.0 mi WSW 12.7 mph 19.6 mph N/A   Clear
10:35 AM 75.2 °F - 28.4 °F 18% 29.69 in 7.0 mi West 12.7 mph 19.6 mph N/A   Clear
10:55 AM 77.0 °F - 26.6 °F 16% 29.69 in 10.0 mi West 16.1 mph 20.7 mph N/A   Clear
11:15 AM 78.8 °F - 26.6 °F 15% 29.69 in 7.0 mi West 15.0 mph 18.4 mph N/A   Clear
11:35 AM 80.6 °F - 26.6 °F 14% 29.68 in 7.0 mi West 13.8 mph 20.7 mph N/A   Clear
11:55 AM 80.6 °F - 26.6 °F 14% 29.68 in 10.0 mi West 12.7 mph 18.4 mph N/A   Clear
12:35 PM 82.4 °F - 28.4 °F 14% 29.67 in 10.0 mi West 12.7 mph 18.4 mph N/A   Clear
12:55 PM 82.4 °F - 28.4 °F 14% 29.66 in 10.0 mi West 13.8 mph 18.4 mph N/A   Clear
1:15 PM 84.2 °F - 28.4 °F 13% 29.65 in 10.0 mi West 15.0 mph 20.7 mph N/A   Clear
1:35 PM 84.2 °F - 28.4 °F 13% 29.63 in 10.0 mi WSW 10.4 mph 20.7 mph N/A   Clear
1:55 PM 84.2 °F - 28.4 °F 13% 29.63 in 10.0 mi West 15.0 mph 24.2 mph N/A   Clear
2:15 PM 86.0 °F - 26.6 °F 12% 29.62 in 7.0 mi West 13.8 mph 21.9 mph N/A   Clear
2:35 PM 86.0 °F - 26.6 °F 12% 29.62 in 7.0 mi West 15.0 mph 21.9 mph N/A   Clear
3:15 PM 87.8 °F - 26.6 °F 11% 29.59 in 7.0 mi West 11.5 mph 17.3 mph N/A   Clear
3:35 PM 87.8 °F - 28.4 °F 12% 29.60 in 7.0 mi WNW 20.7 mph 29.9 mph N/A   Clear
3:55 PM 86.0 °F - 26.6 °F 12% 29.60 in 7.0 mi WNW 19.6 mph 27.6 mph N/A   Clear
4:15 PM 87.8 °F - 28.4 °F 12% 29.60 in 7.0 mi WNW 18.4 mph 24.2 mph N/A   Clear
4:35 PM 86.0 °F - 26.6 °F 12% 29.60 in 7.0 mi West 11.5 mph 21.9 mph N/A   Clear
4:55 PM 86.0 °F - 26.6 °F 12% 29.60 in 7.0 mi WNW 12.7 mph 18.4 mph N/A   Clear
5:15 PM 86.0 °F - 28.4 °F 12% 29.60 in 7.0 mi West 10.4 mph 19.6 mph N/A   Clear
5:35 PM 84.2 °F - 28.4 °F 13% 29.60 in 7.0 mi West 8.1 mph 18.4 mph N/A   Clear
5:55 PM 82.4 °F - 26.6 °F 13% 29.61 in 7.0 mi WSW 10.4 mph 16.1 mph N/A   Clear
6:15 PM 80.6 °F - 26.6 °F 14% 29.62 in 7.0 mi WSW 4.6 mph - N/A   Clear
6:35 PM 78.8 °F - 26.6 °F 15% 29.62 in 7.0 mi SW 3.5 mph - N/A   Clear
6:55 PM 75.2 °F - 26.6 °F 17% 29.62 in 10.0 mi SSW 5.8 mph - N/A   Clear
7:15 PM 73.4 °F - 26.6 °F 18% 29.62 in 10.0 mi SSW 8.1 mph - N/A   Clear
7:35 PM 77.0 °F - 24.8 °F 14% 29.63 in 7.0 mi SSW 10.4 mph - N/A   Clear
7:55 PM 71.6 °F - 28.4 °F 20% 29.65 in 7.0 mi NNW 5.8 mph - N/A   Clear
8:15 PM 69.8 °F - 28.4 °F 21% 29.66 in 7.0 mi North 3.5 mph - N/A   Clear
8:35 PM 71.6 °F - 30.2 °F 22% 29.67 in 7.0 mi NNE 4.6 mph - N/A   Clear
8:55 PM 69.8 °F - 35.6 °F 28% 29.68 in 7.0 mi NNE 10.4 mph - N/A   Clear
9:15 PM 68.0 °F - 35.6 °F 30% 29.70 in 10.0 mi NE 11.5 mph - N/A   Clear
9:35 PM 68.0 °F - 35.6 °F 30% 29.72 in 10.0 mi NNE 11.5 mph - N/A   Clear
9:55 PM 64.4 °F - 35.6 °F 34% 29.75 in 10.0 mi North 9.2 mph - N/A   Clear
10:15 PM 62.6 °F - 37.4 °F 39% 29.79 in 10.0 mi NNW 21.9 mph 27.6 mph N/A   Clear
10:55 PM 51.8 °F - 39.2 °F 62% 29.86 in 7.0 mi NNW 23.0 mph 29.9 mph N/A   Clear
11:15 PM 50.0 °F - 37.4 °F 62% 29.88 in 7.0 mi North 16.1 mph 28.8 mph N/A   Clear
11:35 PM 48.2 °F - 37.4 °F 66% 29.89 in 7.0 mi North 20.7 mph 28.8 mph N/A   Clear
11:55 PM 46.4 °F 39.0 °F 35.6 °F 66% 29.93 in 7.0 mi North 19.6 mph 28.8 mph N/A   Clear